Weather in Borodianka

Ukraine / Kyiv Region     50°38′44″N   29°55′14″E
В апреле 2022 года жителям России запретили посещать сайт meteo.paraplan.net по решению Генеральной прокуратуры. Аудитория сайта уменьшилась в 10 раз. Владельцы сайта не видят смысла в поддержке погодного сервера в таких условиях. Сайт будет закрыт в октябре.
temp.,
°C
wind,
m/s
gust,
m/s
humid.,
%
clouds,
%
prec.,
mm/h
press.,
hPa
HPBL,
m
25 september, sun
sun2500:00+7w411915 0.0 1015263
03:00+6w412895 0.0 1016310
06:00+5w411925 0.0 1016258
09:00+9w410706 0.0 1016361
12:00+14w58475 0.0 10161561
15:00+15w5748100 0.0 10151843
18:00+13w2565100 0.0 1014175
21:00+9wsw358596 0.1 101585
26 september, mon
mon2600:00+8sw348790 0.0 101471
03:00+8sw2288100 0.0 101329
06:00+9s2476100 0.0 101380
09:00+10ssw2689100 0.3 1013211
12:00+10s2695100 0.8 1012237
15:00+11sse2489100 1.0 1012164
18:00+11ene2292100 1.0 101135
21:00+10e2696100 2.1 1010208
27 september, tue
tue2700:00+10e2596100 0.1 1009200
03:00+10e2597100 0.1 1008149
06:00+10e2597100 0.0 1007143
09:00+11e3692100 0.0 1006296
12:00+12e4895100 0.3 1004431
15:00+12e51098100 3.0 1002439
18:00+13ese61296100 1.8 1000616
21:00+12ese4998100 5.1 1000365
28 september, wed
wed2800:00+12se2599100 0.3 999236
03:00+12w4898100 0.6 998434
06:00+12w4995100 0.0 999530
09:00+12w5992100 0.0 1000715
12:00+14w697696 0.0 1001874
15:00+17w576071 0.1 10021374
18:00+15w49759 0.3 1003496
21:00+10w24930 0.3 100666
29 september, thu
thu2900:00+9wsw22915 0.0 100812
03:00+9s22915 0.0 100918
06:00+8sse339194 0.0 101054
09:00+12se3780100 0.0 1010229
12:00+16se5863100 0.0 1010592
15:00+19sse5859100 0.0 1009968
18:00+16se4107899 0.3 1009288
21:00+15ese51484100 1.3 1010441